KAL902 LFPG-RKSI

Flight info

Callsign KAL902
Flight time N/A
Altitude 31000
Route OKASI DCT OKEKO DCT MOU/N0480F330 DCT MADIV DCT MOKIP DCT TUFTA DCT GEVEA DCT ORSUD DCT BIBAN DCT TZO DCT BELOV DCT RUPAX DCT VIE DCT PAPIZ DCT PINDO DCT PEREN DCT DIGTI UN644 NONDU UW81 EKI UM603 IST UT302 ERSEN UA4 YAVRU UL615 EZN/N0486F350 UL615 ERZ UN161 INDUR N449 DUKAN A480 KRS B738 NEBIT B476 TIMGA A480 OTBOR N147 GENDI Z621 ARBOL M610 RULAD/K0878S1070 A343 NLT/K0874S1130 A343 POSOT B215 FKG W188 LIKMI W270 DKO W69 HUR B339 LADIX W34 VAPGU W100 ORAVA W201 UNSEK A326 DOBGA/K0870S1070 A326 SANKO/K0859S1010 A326 DONVO G597 AGAVO/N0464F330 Y644 REBIT
Aircraft B77W/H-SDE2FGHIJ1J3J5M1P2RWXYZ/LB1D1

Departure

Time 2026-05-05 23:52
Airport Charles de Gaulle International Airport (LFPG)

Arrival

Time N/A
Airport Incheon International Airport (RKSI)
Time Latitude Longitude Altitude Speed Heading
2026-05-05 23:23 49.00751 2.58563 342 ft 0 kts 265°
2026-05-05 23:31 49.00751 2.58564 342 ft 1 kts 265°
2026-05-05 23:31 49.00752 2.58585 342 ft 2 kts 265°
2026-05-05 23:32 49.00753 2.58608 341 ft 2 kts 265°
2026-05-05 23:32 49.00754 2.58630 341 ft 2 kts 265°
2026-05-05 23:32 49.00755 2.58652 340 ft 1 kts 272°
2026-05-05 23:32 49.00753 2.58670 340 ft 1 kts 289°
2026-05-05 23:33 49.00748 2.58688 340 ft 1 kts 304°
2026-05-05 23:33 49.00740 2.58704 340 ft 1 kts 317°
2026-05-05 23:33 49.00735 2.58709 340 ft 0 kts 321°
2026-05-05 23:35 49.00736 2.58709 340 ft 0 kts 321°
2026-05-05 23:35 49.00749 2.58696 340 ft 4 kts 336°
2026-05-05 23:35 49.00791 2.58678 340 ft 6 kts 347°
2026-05-05 23:36 49.00831 2.58660 340 ft 4 kts 326°
2026-05-05 23:36 49.00845 2.58619 341 ft 3 kts 276°
2026-05-05 23:36 49.00843 2.58579 342 ft 3 kts 264°
2026-05-05 23:36 49.00840 2.58539 342 ft 4 kts 264°
2026-05-05 23:37 49.00837 2.58487 343 ft 5 kts 265°
2026-05-05 23:37 49.00833 2.58411 345 ft 8 kts 266°
2026-05-05 23:37 49.00827 2.58311 347 ft 10 kts 265°
2026-05-05 23:37 49.00822 2.58195 349 ft 9 kts 268°
2026-05-05 23:38 49.00843 2.58130 351 ft 6 kts 326°
2026-05-05 23:38 49.00887 2.58110 351 ft 7 kts 352°
2026-05-05 23:38 49.00940 2.58099 351 ft 8 kts 354°
2026-05-05 23:38 49.01009 2.58090 351 ft 11 kts 355°
2026-05-05 23:39 49.01102 2.58078 352 ft 14 kts 355°
2026-05-05 23:39 49.01213 2.58065 352 ft 16 kts 355°
2026-05-05 23:39 49.01332 2.58049 352 ft 18 kts 355°
2026-05-05 23:39 49.01461 2.58034 352 ft 19 kts 356°
2026-05-05 23:40 49.01593 2.58017 357 ft 17 kts 355°
2026-05-05 23:40 49.01709 2.58003 361 ft 15 kts 355°
2026-05-05 23:40 49.01815 2.57989 363 ft 14 kts 355°
2026-05-05 23:40 49.01908 2.57948 366 ft 13 kts 328°
2026-05-05 23:41 49.01971 2.57857 369 ft 12 kts 302°
2026-05-05 23:41 49.01997 2.57733 370 ft 12 kts 274°
2026-05-05 23:41 49.01992 2.57590 369 ft 14 kts 265°
2026-05-05 23:41 49.01983 2.57432 369 ft 15 kts 265°
2026-05-05 23:42 49.01974 2.57263 371 ft 15 kts 265°
2026-05-05 23:42 49.01966 2.57098 372 ft 16 kts 266°
2026-05-05 23:42 49.01957 2.56927 374 ft 15 kts 266°
2026-05-05 23:42 49.01949 2.56766 377 ft 14 kts 264°
2026-05-05 23:43 49.01939 2.56614 378 ft 14 kts 265°
2026-05-05 23:43 49.01932 2.56466 378 ft 14 kts 266°
2026-05-05 23:43 49.01924 2.56305 378 ft 15 kts 265°
2026-05-05 23:43 49.01915 2.56135 378 ft 16 kts 266°
2026-05-05 23:44 49.01906 2.55956 376 ft 17 kts 266°
2026-05-05 23:44 49.01895 2.55769 376 ft 17 kts 265°
2026-05-05 23:44 49.01885 2.55578 376 ft 17 kts 265°
2026-05-05 23:44 49.01875 2.55402 377 ft 16 kts 266°
2026-05-05 23:45 49.01866 2.55238 377 ft 10 kts 265°
2026-05-05 23:45 49.01878 2.55140 377 ft 8 kts 309°
2026-05-05 23:45 49.01920 2.55098 378 ft 6 kts 328°
2026-05-05 23:45 49.01946 2.55039 379 ft 7 kts 270°
2026-05-05 23:46 49.01942 2.54945 378 ft 10 kts 266°
2026-05-05 23:46 49.01936 2.54816 376 ft 13 kts 265°
2026-05-05 23:46 49.01928 2.54666 375 ft 15 kts 266°
2026-05-05 23:46 49.01918 2.54496 375 ft 16 kts 265°
2026-05-05 23:47 49.01908 2.54315 375 ft 17 kts 265°
2026-05-05 23:47 49.01898 2.54120 374 ft 18 kts 265°
2026-05-05 23:47 49.01886 2.53911 372 ft 20 kts 265°
2026-05-05 23:47 49.01874 2.53702 371 ft 18 kts 265°
2026-05-05 23:48 49.01864 2.53518 371 ft 16 kts 265°
2026-05-05 23:48 49.01855 2.53353 373 ft 15 kts 266°
2026-05-05 23:48 49.01846 2.53185 373 ft 16 kts 266°
2026-05-05 23:48 49.01837 2.52998 373 ft 18 kts 266°
2026-05-05 23:49 49.01827 2.52810 376 ft 17 kts 265°
2026-05-05 23:49 49.01816 2.52618 377 ft 17 kts 266°
2026-05-05 23:49 49.01807 2.52452 379 ft 14 kts 265°
2026-05-05 23:49 49.01799 2.52293 378 ft 15 kts 265°
2026-05-05 23:50 49.01808 2.52161 377 ft 11 kts 314°
2026-05-05 23:50 49.01875 2.52126 377 ft 9 kts 354°
2026-05-05 23:50 49.01939 2.52117 378 ft 9 kts 355°
2026-05-05 23:50 49.02011 2.52107 380 ft 11 kts 355°
2026-05-05 23:51 49.02083 2.52118 380 ft 9 kts 30°
2026-05-05 23:51 49.02109 2.52190 380 ft 2 kts 85°
2026-05-05 23:51 49.02109 2.52195 380 ft 2 kts 85°
2026-05-05 23:51 49.02127 2.52498 380 ft 64 kts 85°
2026-05-05 23:52 49.02184 2.53558 380 ft 134 kts 86°
2026-05-05 23:52 49.02274 2.55283 395 ft 192 kts 83°
2026-05-05 23:52 49.02380 2.57398 940 ft 208 kts 82°
2026-05-05 23:52 49.02495 2.59493 2182 ft 197 kts 81°
2026-05-05 23:53 49.02610 2.61553 2846 ft 199 kts 82°
2026-05-05 23:53 49.02725 2.63668 3388 ft 205 kts 83°
2026-05-05 23:53 49.02839 2.65859 3806 ft 218 kts 84°
2026-05-05 23:53 49.02964 2.68247 4116 ft 236 kts 84°
2026-05-05 23:54 49.03101 2.70852 4547 ft 253 kts 84°
2026-05-05 23:54 49.03240 2.73532 5142 ft 261 kts 84°
2026-05-05 23:54 49.03385 2.76307 5845 ft 266 kts 84°
2026-05-05 23:54 49.03532 2.79158 6536 ft 271 kts 84°
2026-05-05 23:55 49.03679 2.82030 7229 ft 275 kts 85°
2026-05-05 23:55 49.03828 2.84943 7911 ft 280 kts 85°
2026-05-05 23:55 49.03978 2.87874 8580 ft 284 kts 85°
2026-05-05 23:55 49.04131 2.90922 9248 ft 288 kts 86°
2026-05-05 23:56 49.04216 2.93946 9873 ft 291 kts 97°
2026-05-05 23:56 49.03643 2.96875 10456 ft 293 kts 122°
2026-05-05 23:56 49.02329 2.99188 11075 ft 293 kts 146°
2026-05-05 23:56 49.00494 3.00490 11644 ft 294 kts 170°
2026-05-05 23:57 48.98449 3.00812 12273 ft 296 kts 178°
2026-05-05 23:57 48.96409 3.00896 12933 ft 297 kts 179°
2026-05-05 23:57 48.94339 3.00967 13526 ft 300 kts 179°
2026-05-05 23:57 48.92224 3.00802 13920 ft 310 kts 194°
2026-05-05 23:58 48.90184 2.99492 14072 ft 328 kts 210°
2026-05-05 23:58 48.88200 2.97677 14349 ft 343 kts 211°
2026-05-05 23:58 48.86114 2.95721 14627 ft 359 kts 211°
2026-05-05 23:58 48.83944 2.93683 14949 ft 373 kts 212°
2026-05-05 23:59 48.81714 2.91591 15440 ft 382 kts 211°
2026-05-05 23:59 48.79456 2.89474 16085 ft 387 kts 211°
2026-05-05 23:59 48.77159 2.87323 16721 ft 391 kts 211°
2026-05-05 23:59 48.74837 2.85151 17390 ft 394 kts 212°
2026-05-06 00:00 48.72518 2.82984 18009 ft 398 kts 212°
2026-05-06 00:00 48.70139 2.80764 18566 ft 403 kts 212°
2026-05-06 00:00 48.67749 2.78537 19139 ft 408 kts 211°
2026-05-06 00:00 48.65310 2.76265 19730 ft 413 kts 211°
2026-05-06 00:01 48.62894 2.74018 20309 ft 416 kts 211°
2026-05-06 00:01 48.60397 2.71698 20852 ft 421 kts 211°
2026-05-06 00:01 48.57903 2.69384 21405 ft 426 kts 211°
2026-05-06 00:01 48.55393 2.67057 21975 ft 429 kts 211°
2026-05-06 00:02 48.52813 2.64722 22532 ft 432 kts 207°
2026-05-06 00:02 48.50072 2.62922 23045 ft 434 kts 197°
2026-05-06 00:02 48.47136 2.61829 23584 ft 436 kts 187°
2026-05-06 00:02 48.44109 2.61498 24135 ft 436 kts 178°
2026-05-06 00:03 48.41076 2.61662 24717 ft 437 kts 176°
2026-05-06 00:03 48.38063 2.61881 25294 ft 437 kts 176°
2026-05-06 00:03 48.35015 2.62105 25824 ft 439 kts 176°
2026-05-06 00:03 48.31950 2.62337 26261 ft 442 kts 174°
2026-05-06 00:04 48.28897 2.63011 26601 ft 445 kts 165°
2026-05-06 00:04 48.25937 2.64412 26965 ft 448 kts 156°
2026-05-06 00:04 48.23137 2.66407 27420 ft 449 kts 152°
2026-05-06 00:04 48.20347 2.68551 27925 ft 450 kts 152°
2026-05-06 00:05 48.14769 2.72842 28735 ft 456 kts 152°
2026-05-06 00:05 48.11932 2.75017 29101 ft 460 kts 152°
2026-05-06 00:05 48.09107 2.77179 29477 ft 462 kts 152°
2026-05-06 00:06 48.06204 2.79300 29840 ft 465 kts 156°
2026-05-06 00:06 48.03190 2.81206 30210 ft 468 kts 156°
2026-05-06 00:06 48.00205 2.83068 30619 ft 469 kts 156°
2026-05-06 00:06 47.97203 2.84947 30810 ft 474 kts 156°
2026-05-06 00:07 47.94127 2.86878 30819 ft 479 kts 156°
2026-05-06 00:07 47.87991 2.90740 30822 ft 478 kts 156°
2026-05-06 00:08 47.81881 2.94589 30817 ft 478 kts 156°
2026-05-06 00:08 47.75790 2.98422 30817 ft 478 kts 156°
2026-05-06 00:09 47.69688 3.02255 30825 ft 476 kts 157°
2026-05-06 00:09 47.63588 3.06080 30831 ft 476 kts 157°
2026-05-06 00:10 47.57511 3.09881 30835 ft 474 kts 157°
2026-05-06 00:10 47.51466 3.13654 30832 ft 474 kts 157°
2026-05-06 00:11 47.45415 3.17419 30829 ft 473 kts 158°
2026-05-06 00:11 47.39332 3.21195 30836 ft 474 kts 158°
2026-05-06 00:12 47.33284 3.24940 30833 ft 474 kts 158°
2026-05-06 00:12 47.27231 3.28679 30847 ft 473 kts 158°
2026-05-06 00:13 47.21172 3.32412 30844 ft 472 kts 159°
2026-05-06 00:13 47.15099 3.36144 30853 ft 473 kts 158°
2026-05-06 00:14 47.09058 3.39848 30852 ft 473 kts 158°
2026-05-06 00:14 47.02971 3.43571 30851 ft 472 kts 159°
2026-05-06 00:15 46.96947 3.47245 30856 ft 473 kts 159°
2026-05-06 00:15 46.90880 3.50938 30862 ft 472 kts 159°
2026-05-06 00:16 46.84819 3.54617 30866 ft 471 kts 159°
2026-05-06 00:16 46.78784 3.58387 30876 ft 472 kts 154°
2026-05-06 00:17 46.73517 3.64008 30874 ft 478 kts 137°
2026-05-06 00:17 46.69607 3.71937 31133 ft 492 kts 119°
2026-05-06 00:17 46.68348 3.76609 31654 ft 492 kts 109°
2026-05-06 00:18 46.67499 3.81368 32159 ft 489 kts 107°
2026-05-06 00:18 46.66701 3.86179 32506 ft 489 kts 107°
2026-05-06 00:18 46.65906 3.90952 32764 ft 490 kts 107°
2026-05-06 00:19 46.64270 4.00600 32861 ft 491 kts 107°
2026-05-06 00:19 46.62621 4.10180 32853 ft 490 kts 107°
2026-05-06 00:20 46.60955 4.19764 32865 ft 492 kts 107°
2026-05-06 00:20 46.59268 4.29403 32848 ft 493 kts 107°
2026-05-06 00:21 46.57573 4.39022 32854 ft 493 kts 107°
2026-05-06 00:21 46.55875 4.48602 32850 ft 493 kts 108°
2026-05-06 00:22 46.54151 4.58269 32847 ft 494 kts 108°
2026-05-06 00:22 46.52425 4.67906 32844 ft 494 kts 109°
2026-05-06 00:23 46.50702 4.77466 32843 ft 494 kts 109°
2026-05-06 00:23 46.48949 4.87144 32838 ft 496 kts 109°
2026-05-06 00:24 46.47205 4.96722 32844 ft 495 kts 109°
2026-05-06 00:24 46.45435 5.06387 32859 ft 497 kts 109°
2026-05-06 00:25 46.43652 5.16083 32861 ft 497 kts 109°
2026-05-06 00:25 46.41879 5.25689 32859 ft 498 kts 109°
2026-05-06 00:26 46.40088 5.35342 32864 ft 498 kts 109°
2026-05-06 00:26 46.38281 5.45032 32862 ft 499 kts 109°
2026-05-06 00:27 46.36492 5.54652 32869 ft 499 kts 109°
2026-05-06 00:27 46.34680 5.64337 32850 ft 500 kts 109°
2026-05-06 00:28 46.32854 5.74047 32847 ft 502 kts 110°
2026-05-06 00:28 46.31015 5.83779 32852 ft 501 kts 110°
2026-05-06 00:29 46.29170 5.93487 32869 ft 505 kts 110°
2026-05-06 00:29 46.27311 6.03221 32844 ft 504 kts 110°
2026-05-06 00:30 46.25404 6.12952 32878 ft 503 kts 114°
2026-05-06 00:30 46.22893 6.22283 32908 ft 501 kts 116°
2026-05-06 00:31 46.20306 6.31585 32885 ft 500 kts 116°
2026-05-06 00:31 46.17715 6.40872 32896 ft 502 kts 117°
2026-05-06 00:32 46.15118 6.50150 32907 ft 499 kts 117°
2026-05-06 00:32 46.12520 6.59398 32902 ft 500 kts 117°
2026-05-06 00:33 46.09896 6.68694 32915 ft 501 kts 117°
2026-05-06 00:33 46.07291 6.77902 32872 ft 498 kts 118°
2026-05-06 00:34 46.04672 6.87117 32885 ft 502 kts 117°
2026-05-06 00:34 46.02036 6.96365 32883 ft 499 kts 118°
2026-05-06 00:35 45.99402 7.05563 32897 ft 500 kts 118°
2026-05-06 00:35 45.96745 7.14812 32906 ft 502 kts 117°
2026-05-06 00:36 45.94972 7.24540 32910 ft 510 kts 105°
2026-05-06 00:36 45.93782 7.34627 32908 ft 516 kts 104°
2026-05-06 00:37 45.92587 7.44687 32921 ft 511 kts 105°
2026-05-06 00:37 45.91046 7.54577 32926 ft 511 kts 109°
2026-05-06 00:38 45.89320 7.64521 32961 ft 512 kts 110°
2026-05-06 00:38 45.87618 7.74382 32951 ft 510 kts 110°
2026-05-06 00:39 45.85918 7.84222 32962 ft 510 kts 110°
2026-05-06 00:39 45.84218 7.94046 32979 ft 512 kts 111°
2026-05-06 00:40 45.82498 8.03942 32984 ft 513 kts 110°
2026-05-06 00:40 45.80766 8.13864 32989 ft 514 kts 110°
2026-05-06 00:41 45.79028 8.23774 32976 ft 517 kts 111°
2026-05-06 00:41 45.77278 8.33707 32965 ft 513 kts 111°
2026-05-06 00:42 45.75526 8.43577 32964 ft 520 kts 111°
2026-05-06 00:42 45.73742 8.53592 32956 ft 518 kts 111°
2026-05-06 00:43 45.71951 8.63580 32950 ft 520 kts 111°
2026-05-06 00:43 45.70155 8.73555 32940 ft 519 kts 112°
2026-05-06 00:44 45.68357 8.83477 32939 ft 519 kts 112°
2026-05-06 00:44 45.66536 8.93480 32936 ft 520 kts 112°
2026-05-06 00:45 45.64706 9.03461 32935 ft 526 kts 112°
2026-05-06 00:45 45.62865 9.13467 32935 ft 521 kts 112°
2026-05-06 00:46 45.61014 9.23465 32942 ft 522 kts 112°
2026-05-06 00:46 45.59152 9.33468 32941 ft 525 kts 111°
2026-05-06 00:47 45.57274 9.43507 32943 ft 522 kts 111°
2026-05-06 00:47 45.55110 9.53280 32947 ft 518 kts 120°
2026-05-06 00:48 45.52322 9.62717 32946 ft 515 kts 120°
2026-05-06 00:48 45.49533 9.72051 32932 ft 512 kts 121°
2026-05-06 00:49 45.46733 9.81365 32937 ft 516 kts 121°
2026-05-06 00:49 45.43912 9.90717 32948 ft 513 kts 121°
2026-05-06 00:50 45.41088 10.00040 32944 ft 517 kts 121°
2026-05-06 00:50 45.38249 10.09382 32945 ft 513 kts 121°
2026-05-06 00:51 45.35401 10.18708 32943 ft 517 kts 121°
2026-05-06 00:51 45.32563 10.27974 32947 ft 514 kts 120°
2026-05-06 00:52 45.29688 10.37323 32943 ft 518 kts 120°
2026-05-06 00:52 45.26824 10.46611 32945 ft 515 kts 120°
2026-05-06 00:53 45.23946 10.55902 32945 ft 516 kts 120°
2026-05-06 00:53 45.21053 10.65207 32941 ft 517 kts 121°
2026-05-06 00:54 45.18139 10.74545 32927 ft 517 kts 121°
2026-05-06 00:54 45.15240 10.83804 32927 ft 519 kts 121°
2026-05-06 00:55 45.12311 10.93125 32938 ft 518 kts 121°
2026-05-06 00:55 45.09379 11.02422 32939 ft 519 kts 121°
2026-05-06 00:56 45.06444 11.11696 32928 ft 517 kts 121°
2026-05-06 00:56 45.03510 11.20930 32925 ft 519 kts 121°
2026-05-06 00:57 45.00550 11.30216 32926 ft 518 kts 121°
2026-05-06 00:57 44.97595 11.39454 32924 ft 518 kts 121°
2026-05-06 00:58 44.94609 11.48752 32922 ft 523 kts 120°
2026-05-06 00:58 44.91601 11.58089 32929 ft 521 kts 121°
2026-05-06 00:59 44.88625 11.67296 32933 ft 521 kts 121°
2026-05-06 00:59 44.85590 11.76645 32928 ft 521 kts 121°
2026-05-06 01:00 44.82578 11.85896 32931 ft 519 kts 121°
2026-05-06 01:00 44.79581 11.95064 32929 ft 522 kts 121°
2026-05-06 01:01 44.76535 12.04352 32936 ft 521 kts 121°
2026-05-06 01:01 44.73507 12.13554 32939 ft 523 kts 121°
2026-05-06 01:02 44.70465 12.22766 32940 ft 522 kts 121°
2026-05-06 01:02 44.67411 12.31984 32939 ft 522 kts 120°
2026-05-06 01:03 44.64331 12.41244 32943 ft 522 kts 121°
2026-05-06 01:03 44.61263 12.50439 32942 ft 521 kts 120°
2026-05-06 01:04 44.58192 12.59604 32941 ft 522 kts 120°
2026-05-06 01:04 44.54903 12.68590 32937 ft 515 kts 129°
2026-05-06 01:05 44.50302 12.76111 32936 ft 504 kts 142°
2026-05-06 01:05 44.45254 12.82798 32929 ft 499 kts 143°